Preview of NWS' New Version of Forecast
This preview is not operational and should not be used for support decisions.

Regional Weather Roundup (RWR)

Issued by National Weather Service (NWS)

                            
000
ASUS45 KABQ 220710
RWRNM 
NEW MEXICO REGIONAL WEATHER ROUNDUP
NATIONAL WEATHER SERVICE ALBUQUERQUE NM
100 AM MDT MON APR 22 2019

NOTE: "FAIR" MEANS FEW OR NO CLOUDS BELOW 12,000 FEET AGL WITH NO
       SIGNIFICANT WEATHER OR OBSTRUCTIONS TO VISION.

      THIS PRODUCT IS RELEASED AS TWO VERSIONS.  ONE VERSION NEAR
      THE TOP OF THE HOUR CONTAINING PRELIMINARY DATA FROM ALBUQUERQUE
      AND OTHER STATIONS.  A FINAL VERSION WITH ADDITIONAL DATA IS 
      ISSUED ABOUT 10 MINUTES AFTER THE HOUR.
 
NMZ501-503-504-510>518-220800-
NORTHWEST PLATEAU/NORTHCENTRAL MOUNTAINS
  
CITY           SKY/WX    TMP DP  RH WIND       PRES   REMARKS
FARMINGTON     FAIR      56  16  20 W5        29.98R                  
LOS ALAMOS       N/A     57  13  17 W6        30.09S                  
SANTA FE       FAIR      50  24  36 CALM      30.04R                  
TAOS           FAIR      40  20  44 NE7       30.11R                  
ANGEL FIRE       N/A     30  26  86 CALM      30.17R                  

$$
NMZ402-403-502-505>509-220800-
WESTCENTRAL MOUNTAINS/SOUTHWEST MOUNTAINS
  
CITY           SKY/WX    TMP DP  RH WIND       PRES   REMARKS
GALLUP         FAIR      46  19  34 S9        30.08R                  
GRANTS         FAIR      44  19  37 NW5G16    30.10R                  
SILVER CITY    FAIR      54  20  27 NW6       30.05S                  

$$
NMZ407-409-411-412-220800-
SOUTHERN DESERTS
  
CITY           SKY/WX    TMP DP  RH WIND       PRES   REMARKS
DEMING         FAIR      65  31  28 W10       30.00S                  
LAS CRUCES     FAIR      69  29  22 W18G24    29.99S                  
HOLLOMAN AFB   FAIR      64  28  25 CALM      29.97R                  
ALAMOGORDO     FAIR      64  28  25 SW7       29.97R                  
T OR C         FAIR      64  17  16 SW6       29.99R                  

$$
NMZ519>523-220800-
CENTRAL VALLEYS/CENTRAL HIGHLANDS
  
CITY           SKY/WX    TMP DP  RH WIND       PRES   REMARKS
ALBUQUERQUE    FAIR      56  29  35 E6        30.02R                  
DOUBLE EAGLE   FAIR      47  26  44 NW6       30.03S                  
MORIARTY ARPT  FAIR      41  30  65 CALM      30.07R                  
CLINES CORNERS FAIR      48  21  34 W10       30.09R                  
BELEN          FAIR      54  26  34 NE3       30.02R                  
SOCORRO        FAIR      63  21  19 E12       29.99R                  

$$
NMZ524>526-539-540-220800-
SOUTHCENTRAL MOUNTAINS
  
CITY           SKY/WX    TMP DP  RH WIND       PRES   REMARKS
RUIDOSO        FAIR      59  18  20 W5        30.10F                  

$$
NMZ527>531-220800-
NORTHEAST HIGHLANDS/NORTHEAST PLAINS
  
CITY           SKY/WX    TMP DP  RH WIND       PRES   REMARKS
LAS VEGAS      FAIR      44  24  45 N8        30.06S                  
RATON          FAIR      48  36  63 N14       30.06R                  
CLAYTON        FAIR      48  38  68 N10       30.01S                  

$$
NMZ532>537-220800-
EASTCENTRAL PLAINS
  
CITY           SKY/WX    TMP DP  RH WIND       PRES   REMARKS
SANTA ROSA     FAIR      56  23  27 S3        29.94S                  
TUCUMCARI      FAIR      55  31  39 NE10      29.93R                  
CANNON AFB     FAIR      57  26  30 W3        29.95F                  
CLOVIS AIRPORT FAIR      51  29  42 W7        29.95S                  

$$
NMZ028-029-538-220800-
SOUTHEAST PLAINS
  
CITY           SKY/WX    TMP DP  RH WIND       PRES   REMARKS
ROSWELL        FAIR      65  21  18 W3        29.90R                  
ARTESIA        FAIR      64  25  22 W9        29.91S                  
CARLSBAD       FAIR      65  28  24 W10       29.88S                  
HOBBS          FAIR      66  52  59 S10G18    29.94S                  


$$